contact:dominique.lefevre@mio.osupytheas.fr, maurice.libes@osupytheas.fr, didier.mallarino@osupytheas.fr
Project:EMSO http://www.emso-fr.org/EMSO-France
Depth: 2436.0 m
Title:EMSO Ligure Ouest : Data MII capteur AQUADOPP
Date,Latitude,Longitude,X_East,Y_North,Z_Up,Amplitude_X,Amplitude_Y,Amplitude_Z,Batterie,SoundSpeed,Heading,Pitch,Roll,Pressure,TIS,Speed,Direction
, degrees North, degrees East, m.s-1, m.s-1,m.s-1, 1, 1, 1, Volt, m.s-1, degree, degree, degree, dbar, degree_C, m.s-1, degree
2019-07-02T00:09:04,42.805,6.029,-0.053,0.001,0.006,102.0,105.0,100.0,13.4,1505.2,327.9,-0.8,1.8,2470.086,13.29,0.053,271.1
2019-07-02T00:12:05,42.805,6.029,-0.061,-0.014,-0.035,102.0,104.0,99.0,13.3,1505.2,326.1,-0.8,1.8,2470.086,13.3,0.062,257.1
2019-07-02T00:15:06,42.805,6.029,-0.056,-0.025,-0.033,104.0,104.0,99.0,13.4,1505.3,324.9,-0.7,1.8,2470.015,13.31,0.061,245.9
2019-07-02T00:18:07,42.805,6.029,-0.034,-0.01,-0.01,103.0,107.0,101.0,13.4,1505.3,327.6,-0.8,1.8,2470.064,13.31,0.035,253.6
2019-07-02T00:21:08,42.805,6.029,-0.058,-0.022,-0.033,102.0,103.0,99.0,13.3,1505.3,325.4,-0.7,1.8,2470.05,13.32,0.062,249.2
2019-07-02T00:24:09,42.805,6.029,-0.048,0.0,0.0,102.0,104.0,99.0,13.4,1505.3,326.0,-0.7,1.8,2470.049,13.32,0.048,270.0
2019-07-02T00:27:10,42.805,6.029,-0.064,-0.02,-0.004,103.0,103.0,100.0,13.4,1505.3,324.2,-0.7,1.9,2470.018,13.32,0.067,252.6
2019-07-02T00:30:11,42.805,6.029,-0.037,-0.014,0.007,101.0,105.0,99.0,13.4,1505.3,326.7,-0.7,1.8,2470.095,13.32,0.039,249.3
2019-07-02T00:33:12,42.805,6.029,-0.031,-0.028,-0.017,103.0,103.0,98.0,13.3,1505.3,326.0,-0.7,1.8,2470.058,13.32,0.041,227.9
2019-07-02T00:36:13,42.805,6.029,-0.059,-0.009,-0.026,100.0,103.0,99.0,13.3,1505.3,327.8,-0.7,1.9,2470.034,13.32,0.059,261.3
2019-07-02T00:39:14,42.805,6.029,-0.045,-0.029,-0.056,102.0,104.0,97.0,13.3,1505.3,324.2,-0.7,1.9,2470.017,13.32,0.053,237.2
2019-07-02T00:42:15,42.805,6.029,-0.067,-0.031,-0.015,101.0,102.0,98.0,13.4,1505.3,326.5,-0.7,1.8,2470.064,13.32,0.073,245.2
2019-07-02T00:45:16,42.805,6.029,-0.041,-0.01,-0.023,103.0,103.0,98.0,13.4,1505.3,326.6,-0.7,1.8,2470.024,13.32,0.042,256.3
2019-07-02T00:48:17,42.805,6.029,-0.025,-0.03,-0.013,102.0,103.0,98.0,13.4,1505.3,323.5,-0.7,1.8,2470.018,13.32,0.039,219.8
2019-07-02T00:51:18,42.805,6.029,-0.05,-0.01,-0.019,102.0,102.0,100.0,13.4,1505.3,323.0,-0.7,1.8,2470.009,13.32,0.05,258.7
2019-07-02T00:54:19,42.805,6.029,-0.042,-0.018,-0.034,102.0,103.0,98.0,13.4,1505.3,324.8,-0.7,1.8,2470.033,13.32,0.045,246.8
2019-07-02T00:57:20,42.805,6.029,-0.038,-0.016,-0.015,103.0,104.0,98.0,13.4,1505.3,326.9,-0.7,1.8,2470.017,13.32,0.041,247.2
2019-07-02T01:00:21,42.805,6.029,-0.052,-0.012,-0.014,101.0,104.0,97.0,13.4,1505.3,325.4,-0.7,1.8,2470.032,13.32,0.053,257.0
2019-07-02T01:03:22,42.805,6.029,-0.043,-0.03,-0.009,103.0,103.0,98.0,13.4,1505.3,324.5,-0.7,1.8,2470.027,13.32,0.052,235.1
2019-07-02T01:06:23,42.805,6.029,-0.057,0.0,-0.011,103.0,105.0,99.0,13.4,1505.3,325.3,-0.7,1.8,2470.023,13.32,0.057,270.0
2019-07-02T01:09:24,42.805,6.029,-0.058,-0.028,-0.027,102.0,103.0,99.0,13.4,1505.3,324.5,-0.8,1.8,2470.006,13.32,0.064,244.2
2019-07-02T01:12:25,42.805,6.029,-0.024,-0.014,0.019,103.0,103.0,100.0,13.3,1505.3,327.3,-0.7,1.8,2469.99,13.32,0.027,239.7
2019-07-02T01:15:26,42.805,6.029,-0.047,-0.033,-0.051,103.0,104.0,99.0,13.3,1505.3,325.2,-0.7,1.8,2469.982,13.32,0.057,234.9
2019-07-02T01:18:27,42.805,6.029,-0.044,-0.011,-0.027,104.0,104.0,99.0,13.4,1505.3,325.7,-0.7,1.8,2469.982,13.32,0.045,256.0
2019-07-02T01:21:28,42.805,6.029,-0.045,-0.029,-0.007,103.0,103.0,100.0,13.4,1505.3,326.9,-0.7,1.8,2470.006,13.32,0.053,237.2
2019-07-02T01:24:29,42.805,6.029,-0.052,-0.013,-0.02,102.0,102.0,98.0,13.4,1505.3,326.9,-0.7,1.9,2469.958,13.32,0.053,256.0
2019-07-02T01:27:30,42.805,6.029,-0.048,-0.014,-0.009,103.0,103.0,99.0,13.4,1505.3,326.9,-0.7,1.8,2469.984,13.32,0.05,253.7
2019-07-02T01:30:31,42.805,6.029,-0.045,-0.022,-0.044,104.0,103.0,98.0,13.4,1505.3,324.1,-0.7,1.8,2469.963,13.32,0.05,243.9
2019-07-02T01:33:32,42.805,6.029,-0.038,-0.015,-0.009,102.0,103.0,98.0,13.4,1505.3,327.8,-0.7,1.8,2470.028,13.32,0.04,248.5
2019-07-02T01:36:33,42.805,6.029,-0.055,-0.007,-0.024,103.0,103.0,98.0,13.4,1505.3,328.2,-0.7,1.9,2469.987,13.32,0.055,262.7
2019-07-02T01:39:34,42.805,6.029,-0.041,-0.012,-0.002,101.0,102.0,99.0,13.4,1505.3,323.9,-0.7,1.8,2470.019,13.32,0.042,253.7
2019-07-02T01:42:35,42.805,6.029,-0.067,-0.011,-0.039,102.0,104.0,98.0,13.3,1505.3,324.8,-0.7,1.8,2469.982,13.32,0.067,260.7
2019-07-02T01:45:36,42.805,6.029,-0.044,-0.026,-0.041,103.0,103.0,99.0,13.4,1505.3,324.4,-0.7,1.9,2470.006,13.32,0.051,239.4
2019-07-02T01:48:37,42.805,6.029,-0.05,-0.026,-0.008,102.0,104.0,97.0,13.3,1505.3,326.9,-0.7,1.8,2470.02,13.32,0.056,242.5
2019-07-02T01:51:38,42.805,6.029,-0.06,-0.036,-0.022,104.0,103.0,98.0,13.3,1505.3,324.8,-0.7,1.8,2470.014,13.32,0.069,239.0
2019-07-02T01:54:39,42.805,6.029,-0.048,-0.016,-0.034,101.0,103.0,98.0,13.4,1505.3,327.2,-0.7,1.9,2470.022,13.32,0.05,251.6
2019-07-02T01:57:40,42.805,6.029,-0.04,-0.008,-0.026,103.0,103.0,98.0,13.4,1505.3,327.2,-0.7,1.8,2470.018,13.32,0.04,258.7
2019-07-02T02:00:41,42.805,6.029,-0.005,-0.012,-0.01,103.0,104.0,99.0,13.4,1505.3,327.7,-0.7,1.9,2469.999,13.32,0.013,202.6
2019-07-02T02:03:42,42.805,6.029,-0.052,-0.031,-0.009,102.0,103.0,99.0,13.4,1505.3,323.8,-0.7,1.8,2469.979,13.32,0.06,239.2
2019-07-02T02:06:43,42.805,6.029,-0.066,-0.018,-0.018,101.0,102.0,98.0,13.4,1505.3,323.5,-0.7,1.8,2469.997,13.32,0.068,254.7
2019-07-02T02:09:44,42.805,6.029,-0.029,-0.034,-0.002,103.0,102.0,99.0,13.4,1505.3,324.7,-0.7,1.8,2469.983,13.32,0.044,220.5
2019-07-02T02:12:45,42.805,6.029,-0.059,-0.005,-0.008,101.0,103.0,97.0,13.3,1505.3,327.5,-0.7,1.9,2470.049,13.32,0.059,265.2
2019-07-02T02:15:46,42.805,6.029,-0.037,-0.017,0.01,103.0,103.0,99.0,13.3,1505.3,323.1,-0.7,1.8,2469.968,13.32,0.04,245.3
2019-07-02T02:18:47,42.805,6.029,-0.028,-0.029,-0.018,101.0,103.0,99.0,13.3,1505.3,325.7,-0.8,1.9,2469.97,13.32,0.04,224.0
2019-07-02T02:21:48,42.805,6.029,-0.059,-0.022,-0.008,101.0,103.0,98.0,13.4,1505.3,324.7,-0.8,1.8,2470.005,13.32,0.062,249.6
2019-07-02T02:24:49,42.805,6.029,-0.043,-0.024,-0.043,102.0,103.0,99.0,13.4,1505.3,326.8,-0.7,1.8,2469.972,13.32,0.049,240.8
2019-07-02T02:27:50,42.805,6.029,-0.063,-0.03,0.0,102.0,102.0,98.0,13.3,1505.3,323.2,-0.7,1.8,2469.964,13.32,0.069,244.5
2019-07-02T02:30:51,42.805,6.029,-0.057,-0.027,-0.029,102.0,103.0,99.0,13.4,1505.3,325.5,-0.7,1.8,2469.994,13.32,0.063,244.7
2019-07-02T02:33:52,42.805,6.029,-0.058,-0.013,-0.029,102.0,102.0,98.0,13.4,1505.3,327.9,-0.7,1.9,2470.028,13.32,0.059,257.4
2019-07-02T02:36:53,42.805,6.029,-0.068,-0.013,-0.053,101.0,103.0,98.0,13.4,1505.3,324.8,-0.7,1.8,2469.996,13.32,0.069,259.2
2019-07-02T02:39:54,42.805,6.029,-0.062,-0.02,-0.027,104.0,104.0,98.0,13.4,1505.3,325.0,-0.7,1.8,2469.975,13.32,0.065,252.1
2019-07-02T02:42:55,42.805,6.029,-0.041,-0.02,-0.015,102.0,103.0,98.0,13.4,1505.3,325.9,-0.7,1.9,2470.042,13.32,0.045,244.0
2019-07-02T02:45:56,42.805,6.029,-0.04,0.002,0.018,102.0,102.0,98.0,13.3,1505.3,324.5,-0.7,1.8,2470.034,13.32,0.04,272.9
2019-07-02T02:48:57,42.805,6.029,-0.06,-0.004,0.001,102.0,103.0,97.0,13.3,1505.3,325.7,-0.7,1.8,2470.038,13.32,0.06,266.2
2019-07-02T02:51:58,42.805,6.029,-0.053,-0.012,-0.013,101.0,103.0,99.0,13.3,1505.3,327.6,-0.7,1.8,2470.102,13.32,0.054,257.2
2019-07-02T02:54:59,42.805,6.029,-0.042,0.002,-0.036,102.0,103.0,97.0,13.4,1505.3,326.7,-0.7,1.8,2470.01,13.32,0.042,272.7
2019-07-02T02:58:00,42.805,6.029,-0.088,-0.025,-0.04,102.0,102.0,98.0,13.3,1505.3,326.8,-0.7,1.9,2470.032,13.32,0.091,254.1
2019-07-02T03:01:01,42.805,6.029,-0.081,-0.023,-0.06,103.0,104.0,99.0,13.3,1505.3,326.9,-0.7,1.8,2470.037,13.32,0.084,254.2
2019-07-02T03:04:02,42.805,6.029,-0.079,-0.011,-0.005,102.0,104.0,97.0,13.4,1505.3,324.6,-0.7,1.8,2470.044,13.32,0.079,262.1
2019-07-02T03:07:03,42.805,6.029,-0.059,-0.016,0.004,102.0,104.0,98.0,13.3,1505.3,324.7,-0.7,1.8,2470.059,13.32,0.061,254.8
2019-07-02T03:10:04,42.805,6.029,-0.047,-0.014,-0.012,102.0,103.0,100.0,13.4,1505.3,327.6,-0.7,1.8,2470.034,13.32,0.049,253.4
2019-07-02T03:13:05,42.805,6.029,-0.052,-0.033,-0.032,101.0,103.0,99.0,13.4,1505.3,323.0,-0.7,1.9,2470.039,13.32,0.061,237.6
2019-07-02T03:16:06,42.805,6.029,-0.059,-0.02,-0.008,102.0,103.0,99.0,13.4,1505.3,323.5,-0.7,1.9,2470.064,13.32,0.062,251.3
2019-07-02T03:19:07,42.805,6.029,-0.045,-0.022,-0.019,102.0,103.0,99.0,13.4,1505.3,325.7,-0.7,1.9,2470.065,13.32,0.05,243.9
2019-07-02T03:22:08,42.805,6.029,-0.067,-0.013,0.006,101.0,103.0,99.0,13.4,1505.3,324.3,-0.7,1.8,2470.044,13.32,0.068,259.0
2019-07-02T03:25:09,42.805,6.029,-0.047,-0.023,0.006,101.0,105.0,99.0,13.4,1505.3,326.9,-0.8,1.8,2470.087,13.32,0.052,243.9
2019-07-02T03:28:10,42.805,6.029,-0.035,-0.04,-0.019,103.0,104.0,99.0,13.4,1505.3,324.2,-0.7,1.9,2470.099,13.32,0.053,221.2
2019-07-02T03:31:11,42.805,6.029,-0.029,-0.022,-0.015,102.0,103.0,99.0,13.4,1505.3,323.0,-0.7,1.8,2470.042,13.32,0.036,232.8
2019-07-02T03:34:12,42.805,6.029,-0.068,-0.02,-0.017,102.0,104.0,98.0,13.4,1505.3,326.1,-0.8,1.8,2470.079,13.32,0.07,253.6
2019-07-02T03:37:13,42.805,6.029,-0.067,0.0,-0.045,103.0,101.0,98.0,13.3,1505.3,325.6,-0.7,1.9,2470.043,13.32,0.066,270.0
2019-07-02T03:40:14,42.805,6.029,-0.061,-0.013,-0.037,103.0,103.0,98.0,13.3,1505.3,325.4,-0.7,1.8,2470.016,13.32,0.062,258.0
2019-07-02T03:43:15,42.805,6.029,-0.057,-0.023,0.005,101.0,102.0,97.0,13.4,1505.3,323.5,-0.8,1.8,2470.06,13.32,0.061,248.0
2019-07-02T03:46:16,42.805,6.029,-0.043,-0.029,-0.012,101.0,102.0,98.0,13.4,1505.3,326.3,-0.7,1.9,2470.071,13.32,0.051,236.0
2019-07-02T03:49:17,42.805,6.029,-0.06,-0.029,-0.039,102.0,102.0,98.0,13.4,1505.3,326.6,-0.7,1.8,2470.074,13.32,0.066,244.2
2019-07-02T03:52:18,42.805,6.029,-0.065,-0.011,-0.011,102.0,103.0,98.0,13.3,1505.3,324.2,-0.7,1.8,2470.043,13.32,0.065,260.4
2019-07-02T03:55:19,42.805,6.029,-0.053,-0.012,0.011,102.0,102.0,98.0,13.3,1505.3,326.5,-0.7,1.9,2470.046,13.32,0.054,257.2
2019-07-02T03:58:20,42.805,6.029,-0.04,-0.011,0.013,101.0,102.0,98.0,13.4,1505.3,326.3,-0.7,1.8,2470.061,13.32,0.041,254.6
2019-07-02T04:01:21,42.805,6.029,-0.047,-0.001,-0.031,102.0,102.0,98.0,13.4,1505.3,326.7,-0.7,1.9,2470.073,13.32,0.047,268.8
2019-07-02T04:04:22,42.805,6.029,-0.04,-0.009,-0.016,101.0,103.0,98.0,13.4,1505.3,326.6,-0.7,1.8,2470.057,13.32,0.041,257.3
2019-07-02T04:07:23,42.805,6.029,-0.043,-0.013,-0.011,102.0,103.0,99.0,13.4,1505.3,324.1,-0.7,1.8,2470.009,13.32,0.044,253.2
2019-07-02T04:10:24,42.805,6.029,-0.026,-0.007,-0.015,102.0,103.0,103.0,13.4,1505.3,323.7,-0.8,1.9,2470.059,13.32,0.026,254.9
2019-07-02T04:13:25,42.805,6.029,-0.027,-0.006,-0.017,102.0,104.0,98.0,13.4,1505.3,327.2,-0.7,1.9,2470.065,13.32,0.027,257.5
2019-07-02T04:16:26,42.805,6.029,-0.036,-0.027,-0.035,101.0,102.0,98.0,13.4,1505.3,326.5,-0.7,1.8,2470.074,13.32,0.045,233.1
2019-07-02T04:19:27,42.805,6.029,-0.05,-0.01,-0.024,100.0,104.0,97.0,13.4,1505.3,325.1,-0.7,1.8,2470.087,13.32,0.05,258.7
2019-07-02T04:22:28,42.805,6.029,-0.045,-0.008,-0.026,102.0,102.0,99.0,13.4,1505.3,326.9,-0.7,1.8,2470.068,13.32,0.045,259.9
2019-07-02T04:25:29,42.805,6.029,-0.063,-0.025,0.0,100.0,103.0,98.0,13.3,1505.3,327.2,-0.7,1.8,2470.091,13.32,0.067,248.4
2019-07-02T04:28:30,42.805,6.029,-0.038,-0.008,0.009,101.0,103.0,98.0,13.4,1505.3,324.3,-0.7,1.8,2470.087,13.32,0.038,258.1
2019-07-02T04:31:31,42.805,6.029,-0.05,-0.029,-0.026,103.0,102.0,100.0,13.4,1505.3,327.2,-0.7,1.8,2470.06,13.32,0.057,239.9
2019-07-02T04:34:32,42.805,6.029,-0.018,-0.013,0.03,102.0,103.0,99.0,13.4,1505.3,322.5,-0.7,1.9,2470.056,13.32,0.022,234.2
2019-07-02T04:37:33,42.805,6.029,-0.056,-0.018,-0.016,103.0,104.0,100.0,13.4,1505.3,326.8,-0.7,1.9,2470.106,13.32,0.058,252.2
2019-07-02T04:40:34,42.805,6.029,-0.07,-0.024,-0.01,101.0,103.0,98.0,13.4,1505.3,326.1,-0.7,1.9,2470.105,13.32,0.073,251.1
2019-07-02T04:43:35,42.805,6.029,-0.051,-0.01,0.029,100.0,103.0,98.0,13.3,1505.3,324.8,-0.8,1.9,2470.109,13.32,0.051,258.9
2019-07-02T04:46:36,42.805,6.029,-0.047,-0.007,0.008,101.0,102.0,98.0,13.4,1505.3,325.9,-0.8,1.8,2470.069,13.32,0.047,261.5
2019-07-02T04:49:37,42.805,6.029,-0.059,-0.005,-0.001,101.0,104.0,98.0,13.3,1505.3,324.7,-0.8,1.8,2470.132,13.32,0.059,265.2
2019-07-02T04:52:38,42.805,6.029,-0.015,-0.002,0.002,102.0,102.0,98.0,13.3,1505.3,326.6,-0.7,1.8,2470.096,13.32,0.015,262.4
2019-07-02T04:55:39,42.805,6.029,-0.07,0.004,-0.042,100.0,103.0,97.0,13.3,1505.3,326.8,-0.7,1.9,2470.069,13.32,0.07,273.3
2019-07-02T04:58:40,42.805,6.029,-0.049,-0.003,-0.025,100.0,102.0,98.0,13.4,1505.3,323.2,-0.7,1.9,2470.13,13.32,0.049,266.5
2019-07-02T05:01:41,42.805,6.029,-0.031,-0.016,-0.002,102.0,104.0,97.0,13.4,1505.3,327.0,-0.7,1.8,2470.112,13.32,0.034,242.7
2019-07-02T05:04:42,42.805,6.029,-0.01,-0.023,-0.019,103.0,103.0,99.0,13.4,1505.3,324.5,-0.7,1.8,2470.124,13.32,0.025,203.5
2019-07-02T05:07:43,42.805,6.029,-0.03,-0.015,0.006,102.0,102.0,100.0,13.4,1505.3,327.0,-0.7,1.8,2470.11,13.32,0.033,243.4
2019-07-02T05:10:44,42.805,6.029,-0.046,-0.009,-0.009,101.0,102.0,99.0,13.3,1505.3,323.2,-0.7,1.8,2470.092,13.32,0.046,258.9
2019-07-02T05:13:45,42.805,6.029,-0.042,-0.005,-0.001,101.0,105.0,99.0,13.4,1505.3,326.6,-0.7,1.8,2470.182,13.32,0.042,263.2
2019-07-02T05:16:46,42.805,6.029,-0.062,-0.008,-0.001,101.0,103.0,97.0,13.4,1505.3,327.0,-0.7,1.8,2470.146,13.32,0.062,262.7
2019-07-02T05:19:47,42.805,6.029,-0.036,-0.002,-0.032,101.0,104.0,97.0,13.4,1505.3,322.7,-0.7,1.8,2470.145,13.32,0.036,266.8
2019-07-02T05:22:48,42.805,6.029,-0.019,0.002,0.0,102.0,103.0,98.0,13.3,1505.3,326.3,-0.7,1.9,2470.181,13.32,0.019,276.0
2019-07-02T05:25:49,42.805,6.029,-0.052,-0.01,0.001,101.0,104.0,98.0,13.4,1505.3,325.8,-0.7,1.8,2470.081,13.32,0.052,259.1
2019-07-02T05:28:50,42.805,6.029,-0.048,-0.011,-0.011,103.0,103.0,100.0,13.3,1505.3,324.7,-0.7,1.8,2470.113,13.32,0.049,257.1
2019-07-02T05:31:51,42.805,6.029,-0.043,-0.012,0.027,101.0,103.0,99.0,13.4,1505.3,326.3,-0.7,1.8,2470.143,13.32,0.044,254.4
2019-07-02T05:34:52,42.805,6.029,-0.049,-0.009,0.017,101.0,101.0,99.0,13.4,1505.3,326.3,-0.7,1.9,2470.147,13.32,0.049,259.6
2019-07-02T05:37:53,42.805,6.029,-0.045,-0.005,-0.01,100.0,102.0,98.0,13.4,1505.3,324.7,-0.7,1.8,2470.082,13.32,0.045,263.7
2019-07-02T05:40:54,42.805,6.029,-0.061,-0.011,-0.043,103.0,103.0,97.0,13.4,1505.3,327.5,-0.7,1.9,2470.119,13.32,0.061,259.8
2019-07-02T05:43:55,42.805,6.029,-0.063,-0.014,-0.016,101.0,103.0,98.0,13.4,1505.3,322.9,-0.7,1.8,2470.147,13.32,0.064,257.5
2019-07-02T05:46:56,42.805,6.029,-0.046,-0.007,-0.011,103.0,103.0,99.0,13.3,1505.3,325.1,-0.7,1.9,2470.15,13.32,0.046,261.3
2019-07-02T05:49:57,42.805,6.029,-0.064,-0.03,-0.059,102.0,102.0,98.0,13.3,1505.3,324.2,-0.7,1.8,2470.129,13.32,0.07,244.9
2019-07-02T05:52:58,42.805,6.029,-0.074,0.004,-0.036,102.0,103.0,98.0,13.3,1505.3,328.2,-0.7,1.9,2470.123,13.32,0.074,273.1
2019-07-02T05:55:59,42.805,6.029,-0.048,-0.02,-0.026,101.0,102.0,99.0,13.4,1505.3,325.9,-0.7,1.8,2470.157,13.32,0.052,247.4
2019-07-02T05:59:00,42.805,6.029,-0.024,-0.015,-0.012,103.0,105.0,101.0,13.4,1505.3,324.2,-0.7,1.8,2470.116,13.32,0.028,238.0
2019-07-02T06:02:01,42.805,6.029,-0.062,-0.013,-0.031,100.0,103.0,97.0,13.4,1505.3,325.5,-0.7,1.8,2470.111,13.32,0.063,258.2
2019-07-02T06:05:02,42.805,6.029,-0.067,-0.024,-0.055,101.0,103.0,99.0,13.4,1505.3,326.0,-0.7,1.9,2470.145,13.32,0.071,250.3
2019-07-02T06:08:03,42.805,6.029,-0.043,0.0,-0.012,102.0,103.0,97.0,13.3,1505.3,326.0,-0.7,1.8,2470.122,13.32,0.043,270.0
2019-07-02T06:11:04,42.805,6.029,-0.043,-0.014,-0.035,103.0,103.0,98.0,13.4,1505.3,327.5,-0.7,1.8,2470.132,13.32,0.045,252.0
2019-07-02T06:14:05,42.805,6.029,-0.032,-0.026,-0.017,103.0,104.0,99.0,13.3,1505.3,325.7,-0.7,1.9,2470.162,13.32,0.041,230.9
2019-07-02T06:17:06,42.805,6.029,-0.028,-0.015,-0.015,102.0,102.0,98.0,13.4,1505.3,323.6,-0.7,1.9,2470.144,13.32,0.031,241.8
2019-07-02T06:20:07,42.805,6.029,-0.072,-0.009,-0.025,100.0,103.0,98.0,13.4,1505.3,326.6,-0.7,1.9,2470.175,13.32,0.072,262.9
2019-07-02T06:23:08,42.805,6.029,-0.068,0.0,-0.029,101.0,103.0,98.0,13.3,1505.3,326.5,-0.7,1.8,2470.169,13.32,0.067,270.0
2019-07-02T06:26:09,42.805,6.029,-0.048,-0.028,-0.028,102.0,103.0,99.0,13.4,1505.3,323.0,-0.7,1.9,2470.109,13.32,0.055,239.7
2019-07-02T06:29:10,42.805,6.029,-0.035,-0.008,-0.028,102.0,103.0,98.0,13.4,1505.3,325.0,-0.7,1.8,2470.143,13.32,0.035,257.1
2019-07-02T06:32:11,42.805,6.029,-0.026,-0.024,-0.028,103.0,101.0,98.0,13.3,1505.3,325.3,-0.7,1.9,2470.153,13.32,0.035,227.3
2019-07-02T06:35:12,42.805,6.029,-0.053,-0.021,-0.042,103.0,103.0,99.0,13.4,1505.3,324.8,-0.8,1.8,2470.138,13.32,0.057,248.4
2019-07-02T06:38:13,42.805,6.029,-0.041,-0.027,0.005,102.0,103.0,100.0,13.4,1505.3,324.5,-0.7,1.8,2470.114,13.32,0.049,236.6
2019-07-02T06:41:14,42.805,6.029,-0.036,-0.028,-0.017,102.0,103.0,98.0,13.4,1505.3,324.8,-0.7,1.8,2470.159,13.32,0.045,232.1
2019-07-02T06:44:15,42.805,6.029,-0.027,-0.013,-0.014,102.0,103.0,99.0,13.3,1505.3,323.1,-0.8,1.8,2470.132,13.32,0.029,244.3
2019-07-02T06:47:16,42.805,6.029,-0.049,-0.021,-0.012,102.0,103.0,98.0,13.4,1505.3,325.1,-0.7,1.8,2470.114,13.32,0.053,246.8
2019-07-02T06:50:17,42.805,6.029,-0.066,0.008,-0.004,103.0,103.0,98.0,13.4,1505.3,328.0,-0.7,1.9,2470.077,13.32,0.066,276.9
2019-07-02T06:53:18,42.805,6.029,-0.021,-0.013,-0.004,103.0,104.0,98.0,13.4,1505.3,326.6,-0.7,1.8,2470.141,13.32,0.024,238.2
2019-07-02T06:56:19,42.805,6.029,-0.034,-0.038,-0.014,102.0,104.0,99.0,13.4,1505.3,326.2,-0.7,1.9,2470.144,13.32,0.05,221.8
2019-07-02T06:59:20,42.805,6.029,-0.041,-0.014,-0.002,103.0,105.0,98.0,13.3,1505.3,325.0,-0.7,1.8,2470.143,13.32,0.043,251.1
2019-07-02T07:02:21,42.805,6.029,-0.034,-0.011,-0.018,102.0,107.0,103.0,13.4,1505.3,323.3,-0.7,1.9,2470.118,13.32,0.035,252.1
2019-07-02T07:05:22,42.805,6.029,-0.037,-0.014,-0.011,102.0,104.0,99.0,13.4,1505.3,326.1,-0.7,1.8,2470.106,13.32,0.039,249.3
2019-07-02T07:08:23,42.805,6.029,-0.027,-0.016,-0.043,104.0,103.0,98.0,13.4,1505.3,326.2,-0.7,1.9,2470.144,13.32,0.031,239.3
2019-07-02T07:11:24,42.805,6.029,-0.029,-0.015,0.006,102.0,104.0,98.0,13.4,1505.3,323.5,-0.7,1.8,2470.19,13.32,0.032,242.6
2019-07-02T07:14:25,42.805,6.029,-0.039,-0.018,0.006,102.0,103.0,97.0,13.3,1505.3,325.5,-0.7,1.9,2470.166,13.32,0.042,245.2
2019-07-02T07:17:26,42.805,6.029,-0.053,-0.018,-0.02,102.0,104.0,98.0,13.4,1505.3,326.4,-0.7,1.9,2470.164,13.32,0.055,251.2
2019-07-02T07:20:27,42.805,6.029,-0.055,-0.015,-0.028,102.0,102.0,98.0,13.4,1505.3,326.1,-0.7,1.9,2470.142,13.32,0.057,254.7
2019-07-02T07:23:28,42.805,6.029,-0.038,-0.018,-0.005,102.0,103.0,99.0,13.4,1505.3,324.9,-0.7,1.8,2470.16,13.32,0.042,244.7
2019-07-02T07:26:29,42.805,6.029,-0.042,-0.022,-0.026,102.0,102.0,99.0,13.4,1505.3,324.7,-0.8,1.8,2470.124,13.32,0.047,242.4
2019-07-02T07:29:30,42.805,6.029,-0.046,-0.014,-0.022,100.0,102.0,99.0,13.4,1505.3,325.2,-0.7,1.8,2470.094,13.32,0.048,253.1
2019-07-02T07:32:31,42.805,6.029,-0.047,-0.016,-0.008,103.0,102.0,98.0,13.4,1505.3,326.8,-0.7,1.8,2470.116,13.32,0.049,251.2
2019-07-02T07:35:32,42.805,6.029,-0.05,-0.013,-0.011,101.0,104.0,97.0,13.4,1505.3,324.8,-0.7,1.8,2470.123,13.32,0.051,255.4
2019-07-02T07:38:33,42.805,6.029,-0.04,-0.009,-0.009,102.0,104.0,99.0,13.4,1505.3,326.2,-0.7,1.8,2470.124,13.32,0.041,257.3
2019-07-02T07:41:34,42.805,6.029,-0.034,-0.006,0.01,101.0,103.0,99.0,13.4,1505.3,327.3,-0.7,1.8,2470.118,13.32,0.034,260.0
2019-07-02T07:44:35,42.805,6.029,-0.061,0.0,-0.032,101.0,102.0,99.0,13.3,1505.3,327.3,-0.7,1.8,2470.074,13.32,0.06,270.0
2019-07-02T07:47:36,42.805,6.029,-0.055,-0.02,-0.044,101.0,103.0,99.0,13.3,1505.3,323.2,-0.7,1.9,2470.109,13.32,0.058,250.0
2019-07-02T07:50:37,42.805,6.029,-0.051,-0.018,-0.03,102.0,104.0,99.0,13.4,1505.3,326.4,-0.7,1.9,2470.099,13.32,0.054,250.6
2019-07-02T07:53:38,42.805,6.029,-0.044,-0.005,-0.009,102.0,104.0,99.0,13.4,1505.3,324.3,-0.7,1.8,2470.14,13.32,0.044,263.5
2019-07-02T07:56:39,42.805,6.029,-0.057,-0.008,0.008,104.0,106.0,101.0,13.4,1505.3,327.6,-0.8,1.9,2470.127,13.32,0.057,262.0
2019-07-02T07:59:40,42.805,6.029,-0.034,-0.006,-0.004,104.0,104.0,99.0,13.4,1505.3,325.5,-0.7,1.8,2470.07,13.32,0.034,260.0
2019-07-02T08:02:41,42.805,6.029,-0.028,-0.027,-0.012,103.0,105.0,99.0,13.4,1505.3,326.5,-0.8,1.8,2470.099,13.32,0.038,226.0
2019-07-02T08:05:42,42.805,6.029,-0.039,-0.02,-0.032,102.0,106.0,98.0,13.3,1505.3,326.2,-0.7,1.9,2470.105,13.32,0.043,242.9
2019-07-02T08:08:43,42.805,6.029,-0.041,-0.006,-0.03,102.0,105.0,99.0,13.4,1505.3,326.0,-0.8,1.8,2470.073,13.32,0.041,261.7
2019-07-02T08:11:44,42.805,6.029,-0.037,-0.018,0.003,102.0,104.0,102.0,13.4,1505.3,326.3,-0.7,1.8,2470.075,13.32,0.041,244.1
2019-07-02T08:14:45,42.805,6.029,-0.029,-0.007,0.008,102.0,104.0,99.0,13.4,1505.3,325.9,-0.7,1.8,2470.048,13.32,0.029,256.4
2019-07-02T08:17:46,42.805,6.029,-0.045,-0.012,0.028,103.0,104.0,99.0,13.4,1505.3,326.5,-0.7,1.8,2470.095,13.32,0.046,255.1
2019-07-02T08:20:47,42.805,6.029,-0.028,-0.02,-0.002,102.0,103.0,98.0,13.3,1505.3,323.9,-0.7,1.9,2470.106,13.32,0.034,234.5
2019-07-02T08:23:48,42.805,6.029,-0.046,-0.016,-0.016,103.0,104.0,99.0,13.3,1505.3,323.3,-0.7,1.9,2470.07,13.32,0.048,250.8
2019-07-02T08:26:49,42.805,6.029,-0.066,-0.014,-0.053,101.0,102.0,98.0,13.4,1505.3,325.4,-0.7,1.8,2470.118,13.32,0.067,258.0
2019-07-02T08:29:50,42.805,6.029,-0.066,-0.008,-0.021,102.0,104.0,99.0,13.3,1505.3,324.7,-0.8,1.8,2470.088,13.32,0.066,263.1
2019-07-02T08:32:51,42.805,6.029,-0.024,-0.027,0.002,103.0,105.0,100.0,13.4,1505.3,328.2,-0.7,1.9,2470.058,13.32,0.036,221.6
2019-07-02T08:35:52,42.805,6.029,-0.039,-0.026,-0.012,102.0,105.0,100.0,13.3,1505.3,326.2,-0.7,1.8,2470.055,13.32,0.046,236.3
2019-07-02T08:38:53,42.805,6.029,-0.055,-0.015,-0.015,103.0,102.0,99.0,13.4,1505.3,326.5,-0.7,1.8,2470.051,13.32,0.057,254.7
2019-07-02T08:41:54,42.805,6.029,-0.041,-0.002,-0.008,104.0,104.0,99.0,13.4,1505.3,324.6,-0.7,1.8,2470.036,13.32,0.041,267.2
2019-07-02T08:44:55,42.805,6.029,-0.049,-0.025,-0.014,102.0,104.0,99.0,13.4,1505.3,324.4,-0.7,1.8,2470.079,13.32,0.055,243.0
2019-07-02T08:47:56,42.805,6.029,-0.062,-0.015,-0.003,103.0,103.0,99.0,13.4,1505.3,326.7,-0.7,1.8,2470.064,13.32,0.063,256.4
2019-07-02T08:50:57,42.805,6.029,-0.033,-0.017,0.005,102.0,104.0,99.0,13.4,1505.3,324.2,-0.7,1.9,2470.063,13.32,0.037,242.7
2019-07-02T08:53:58,42.805,6.029,-0.054,-0.029,-0.013,102.0,103.0,99.0,13.4,1505.3,327.5,-0.7,1.8,2470.059,13.32,0.061,241.8
2019-07-02T08:56:59,42.805,6.029,-0.066,-0.023,-0.013,102.0,103.0,98.0,13.4,1505.3,325.3,-0.7,1.8,2470.088,13.32,0.069,250.8
2019-07-02T09:00:00,42.805,6.029,-0.052,-0.018,-0.036,100.0,104.0,99.0,13.4,1505.3,323.4,-0.7,1.8,2470.108,13.32,0.055,250.9
2019-07-02T09:03:01,42.805,6.029,-0.026,-0.004,0.013,102.0,104.0,97.0,13.4,1505.3,328.0,-0.7,1.8,2470.076,13.32,0.026,261.3
2019-07-02T09:06:02,42.805,6.029,-0.081,-0.018,-0.038,103.0,105.0,99.0,13.4,1505.3,324.6,-0.7,1.8,2470.083,13.32,0.082,257.5
2019-07-02T09:09:03,42.805,6.029,-0.038,-0.008,-0.011,102.0,104.0,99.0,13.4,1505.3,325.6,-0.7,1.9,2470.052,13.32,0.038,258.1
2019-07-02T09:12:04,42.805,6.029,-0.023,-0.008,-0.001,102.0,104.0,100.0,13.4,1505.3,325.9,-0.7,1.8,2470.093,13.32,0.024,250.8
2019-07-02T09:15:05,42.805,6.029,-0.055,-0.001,-0.043,105.0,105.0,99.0,13.4,1505.3,324.7,-0.8,1.8,2470.042,13.32,0.055,269.0
2019-07-02T09:18:06,42.805,6.029,-0.039,-0.015,-0.038,102.0,104.0,99.0,13.4,1505.3,325.8,-0.7,1.8,2470.076,13.32,0.041,249.0
2019-07-02T09:21:07,42.805,6.029,-0.048,-0.009,-0.018,103.0,103.0,98.0,13.4,1505.3,325.2,-0.7,1.8,2470.016,13.32,0.048,259.4
2019-07-02T09:24:08,42.805,6.029,-0.049,-0.021,-0.025,103.0,102.0,99.0,13.4,1505.3,325.2,-0.7,1.8,2470.007,13.32,0.053,246.8
2019-07-02T09:27:09,42.805,6.029,-0.055,-0.027,0.004,103.0,103.0,99.0,13.4,1505.3,324.5,-0.7,1.8,2470.05,13.32,0.061,243.9
2019-07-02T09:30:10,42.805,6.029,-0.058,-0.019,-0.01,104.0,103.0,99.0,13.4,1505.3,327.8,-0.7,1.8,2470.051,13.32,0.061,251.9
2019-07-02T09:33:11,42.805,6.029,-0.052,-0.035,-0.017,102.0,103.0,100.0,13.4,1505.3,324.0,-0.7,1.8,2470.001,13.32,0.062,236.1
2019-07-02T09:36:12,42.805,6.029,-0.052,0.004,0.0,102.0,104.0,99.0,13.4,1505.3,324.1,-0.7,1.8,2470.026,13.32,0.052,274.4